,,PA_Meas_PMT16A,,PR_Meas_QMR101_102,,RH_Meas_QMH101,,SR_Meas_QMS101,,TA_Meas_QMH101,,GenWind,,GenWind,
time,status,PA,status,PR,status,RH,status,SR,status,TA,status,DirAvg,status,SpdAvg,
2014-02-27, 07:41:04,VALID,919.443,VALID,0,VALID,84.1244,VALID,54.6875,VALID,20.9316,VALID,137,VALID,1.31641,
2014-02-27, 07:42:04,VALID,919.448,VALID,0,VALID,84.4979,VALID,57.481,VALID,20.912,VALID,134,VALID,1.58594,
2014-02-27, 07:43:04,VALID,919.414,VALID,0,VALID,83.7585,VALID,60.2745,VALID,20.93,VALID,105,VALID,0.907031,
2014-02-27, 07:44:04,VALID,919.439,VALID,0,VALID,83.8881,VALID,63.9275,VALID,20.9706,VALID,135,VALID,1.74727,
2014-02-27, 07:45:04,VALID,919.432,VALID,0,VALID,83.7508,VALID,68.5475,VALID,20.9901,VALID,136,VALID,1.51055,
2014-02-27, 07:46:04,VALID,919.448,VALID,0,VALID,83.8576,VALID,73.4897,VALID,20.9901,VALID,132,VALID,1.25,
2014-02-27, 07:47:04,VALID,919.458,VALID,0,VALID,83.9186,VALID,77.1427,VALID,20.9901,VALID,121,VALID,1.83945,
2014-02-27, 07:48:04,VALID,919.451,VALID,0,VALID,84.0405,VALID,79.8288,VALID,21.0112,VALID,127,VALID,1.11758,
2014-02-27, 07:49:04,VALID,919.485,VALID,0,VALID,84.071,VALID,82.8371,VALID,20.9901,VALID,119,VALID,1.48242,
2014-02-27, 07:50:04,VALID,919.449,VALID,0,VALID,83.8347,VALID,86.3827,VALID,20.9706,VALID,128,VALID,1.69648,
2014-02-27, 07:51:04,VALID,919.474,VALID,0,VALID,84.4598,VALID,91.1101,VALID,21.0112,VALID,123,VALID,0.808984,
2014-02-27, 07:52:04,VALID,919.473,VALID,0,VALID,84.3379,VALID,96.1598,VALID,21.0096,VALID,115,VALID,1.46016,
2014-02-27, 07:53:04,VALID,919.448,VALID,0,VALID,84.7419,VALID,99.9203,VALID,21.0096,VALID,118,VALID,1.47734,
2014-02-27, 07:54:04,VALID,919.471,VALID,0,VALID,84.4751,VALID,101.747,VALID,21.008,VALID,122,VALID,1.35117,
2014-02-27, 07:55:04,VALID,919.459,VALID,0,VALID,84.5666,VALID,102.177,VALID,21.0486,VALID,70,VALID,1.02656,
2014-02-27, 07:56:04,VALID,919.466,VALID,0,VALID,84.2692,VALID,103.251,VALID,21.0681,VALID,138,VALID,1.66719,
2014-02-27, 07:57:04,VALID,919.438,VALID,0,VALID,84.3455,VALID,105.937,VALID,21.0681,VALID,130,VALID,1.46484,
2014-02-27, 07:58:04,VALID,919.447,VALID,0,VALID,84.2159,VALID,110.342,VALID,21.0681,VALID,124,VALID,2.11758,
2014-02-27, 07:59:04,VALID,919.45,VALID,0,VALID,84.254,VALID,116.574,VALID,21.0681,VALID,132,VALID,1.95703,
2014-02-27, 08:00:04,VALID,919.463,VALID,0,VALID,84.0939,VALID,121.946,VALID,21.0665,VALID,121,VALID,1.81719,
2014-02-27, 08:01:04,VALID,919.48,VALID,0,VALID,84.1396,VALID,124.309,VALID,21.086,VALID,109,VALID,1.79727,
2014-02-27, 08:02:04,VALID,919.513,VALID,0,VALID,84.3607,VALID,122.913,VALID,21.1461,VALID,112,VALID,1.05156,
2014-02-27, 08:03:04,VALID,919.526,VALID,0,VALID,84.6885,VALID,117.648,VALID,21.164,VALID,94,VALID,1.01406,
2014-02-27, 08:04:04,VALID,919.556,VALID,0,VALID,83.7585,VALID,109.16,VALID,21.1852,VALID,117,VALID,1.4707,
2014-02-27, 08:05:04,VALID,919.564,VALID,0,VALID,84.3988,VALID,101.639,VALID,21.1657,VALID,123,VALID,1.16133,
2014-02-27, 08:06:04,VALID,919.571,VALID,0,VALID,84.2235,VALID,98.631,VALID,21.1445,VALID,111,VALID,1.51406,
2014-02-27, 08:07:04,VALID,919.589,VALID,0,VALID,84.1549,VALID,100.887,VALID,21.1266,VALID,116,VALID,1.42305,
2014-02-27, 08:08:04,VALID,919.605,VALID,0,VALID,84.3683,VALID,102.606,VALID,21.1055,VALID,126,VALID,1.5168,
2014-02-27, 08:09:04,VALID,919.622,VALID,0,VALID,84.6428,VALID,100.672,VALID,21.1071,VALID,130,VALID,1.14258,
2014-02-27, 08:10:04,VALID,919.615,VALID,0,VALID,84.3226,VALID,96.8045,VALID,21.125,VALID,153,VALID,1.13437,
2014-02-27, 08:11:04,VALID,919.626,VALID,0,VALID,84.1168,VALID,93.1515,VALID,21.1657,VALID,158,VALID,1.35352,
2014-02-27, 08:12:04,VALID,919.638,VALID,0,VALID,84.2311,VALID,93.7961,VALID,21.1657,VALID,128,VALID,1.5293,
2014-02-27, 08:13:04,VALID,919.627,VALID,0,VALID,84.78,VALID,97.0194,VALID,21.1657,VALID,128,VALID,0.769531,
2014-02-27, 08:14:04,VALID,919.619,VALID,0,VALID,84.4141,VALID,101.854,VALID,21.125,VALID,129,VALID,1.79727,
2014-02-27, 08:15:04,VALID,919.644,VALID,0,VALID,84.4522,VALID,110.342,VALID,21.086,VALID,138,VALID,1.13437,
2014-02-27, 08:16:04,VALID,919.598,VALID,0,VALID,84.5056,VALID,123.45,VALID,21.086,VALID,120,VALID,1.67539,
2014-02-27, 08:17:04,VALID,919.629,VALID,0,VALID,84.3836,VALID,138.169,VALID,21.0876,VALID,121,VALID,2.35977,
2014-02-27, 08:18:04,VALID,919.639,VALID,0,VALID,84.9096,VALID,148.161,VALID,21.0876,VALID,131,VALID,1.64961,
2014-02-27, 08:19:04,VALID,919.616,VALID,0,VALID,84.8105,VALID,153.748,VALID,21.1071,VALID,126,VALID,1.67422,
2014-02-27, 08:20:04,VALID,919.63,VALID,0,VALID,85.0621,VALID,156.972,VALID,21.1055,VALID,138,VALID,1.42813,
2014-02-27, 08:21:04,VALID,919.671,VALID,0,VALID,84.9858,VALID,160.732,VALID,21.1852,VALID,137,VALID,1.16484,
2014-02-27, 08:22:04,VALID,919.629,VALID,0,VALID,84.9553,VALID,165.137,VALID,21.2031,VALID,133,VALID,1.47227,
2014-02-27, 08:23:04,VALID,919.613,VALID,0,VALID,84.3531,VALID,169.864,VALID,21.2437,VALID,140,VALID,1.72031,
2014-02-27, 08:24:04,VALID,919.628,VALID,0,VALID,84.1015,VALID,175.881,VALID,21.2226,VALID,143,VALID,1.90039,
2014-02-27, 08:25:04,VALID,919.603,VALID,0,VALID,83.789,VALID,179.534,VALID,21.2226,VALID,122,VALID,1.81914,
2014-02-27, 08:26:04,VALID,919.591,VALID,0,VALID,84.3226,VALID,187.807,VALID,21.2811,VALID,120,VALID,1.09063,
2014-02-27, 08:27:04,VALID,919.587,VALID,0,VALID,83.2553,VALID,195.435,VALID,21.2811,VALID,136,VALID,1.46289,
2014-02-27, 08:28:04,VALID,919.611,VALID,0,VALID,84.1396,VALID,198.229,VALID,21.3412,VALID,134,VALID,1.27813,
2014-02-27, 08:29:04,VALID,919.608,VALID,0,VALID,83.2172,VALID,196.725,VALID,21.3591,VALID,146,VALID,2.00078,
2014-02-27, 08:30:04,VALID,919.589,VALID,0,VALID,83.5374,VALID,193.502,VALID,21.4177,VALID,128,VALID,1.87734,
2014-02-27, 08:31:04,VALID,919.592,VALID,0,VALID,82.6912,VALID,193.072,VALID,21.4177,VALID,127,VALID,2.27383,
2014-02-27, 08:32:04,VALID,919.636,VALID,0,VALID,83.8423,VALID,191.46,VALID,21.4973,VALID,128,VALID,1.54727,
2014-02-27, 08:33:04,VALID,919.656,VALID,0,VALID,83.5221,VALID,195.865,VALID,21.5559,VALID,138,VALID,1.85039,
2014-02-27, 08:34:04,VALID,919.673,VALID,0,VALID,82.775,VALID,204.246,VALID,21.5737,VALID,136,VALID,2.10664,
2014-02-27, 08:35:04,VALID,919.696,VALID,0,VALID,83.2553,VALID,212.089,VALID,21.6323,VALID,127,VALID,1.43516,
2014-02-27, 08:36:04,VALID,919.707,VALID,0,VALID,83.1562,VALID,212.304,VALID,21.7103,VALID,118,VALID,1.26523,
2014-02-27, 08:37:04,VALID,919.69,VALID,0,VALID,81.8526,VALID,207.791,VALID,21.7705,VALID,137,VALID,2.75703,
2014-02-27, 08:38:04,VALID,919.665,VALID,0,VALID,82.8665,VALID,212.196,VALID,21.8079,VALID,116,VALID,1.45039,
2014-02-27, 08:39:04,VALID,919.636,VALID,0,VALID,81.4562,VALID,208.006,VALID,21.7883,VALID,141,VALID,1.87148,
2014-02-27, 08:40:04,VALID,919.639,VALID,0,VALID,80.8463,VALID,217.891,VALID,21.7867,VALID,158,VALID,2.88711,
2014-02-27, 08:41:04,VALID,919.605,VALID,0,VALID,81.5248,VALID,226.593,VALID,21.7883,VALID,132,VALID,1.67227,
2014-02-27, 08:42:04,VALID,919.606,VALID,0,VALID,82.028,VALID,228.312,VALID,21.8079,VALID,86,VALID,2.18789,
2014-02-27, 08:43:04,VALID,919.558,VALID,0,VALID,82.1499,VALID,235.511,VALID,21.8469,VALID,124,VALID,1.53164,
2014-02-27, 08:44:04,VALID,919.55,VALID,0,VALID,81.4943,VALID,229.172,VALID,21.9054,VALID,117,VALID,2.05352,
2014-02-27, 08:45:04,VALID,919.538,VALID,0,VALID,80.4804,VALID,223.8,VALID,21.9233,VALID,129,VALID,2.40742,
2014-02-27, 08:46:04,VALID,919.529,VALID,0,VALID,81.3952,VALID,226.379,VALID,21.9249,VALID,128,VALID,1.38945,
2014-02-27, 08:47:04,VALID,919.543,VALID,0,VALID,81.845,VALID,229.494,VALID,22.0047,VALID,134,VALID,1.47734,
2014-02-27, 08:48:04,VALID,919.539,VALID,0,VALID,81.6925,VALID,225.626,VALID,21.9818,VALID,98,VALID,0.909766,
2014-02-27, 08:49:04,VALID,919.536,VALID,0,VALID,81.7611,VALID,220.254,VALID,22.042,VALID,107,VALID,0.878906,
2014-02-27, 08:50:04,VALID,919.529,VALID,0,VALID,80.1069,VALID,208.758,VALID,22.0827,VALID,134,VALID,1.3875,
2014-02-27, 08:51:04,VALID,919.543,VALID,0,VALID,80.9912,VALID,211.552,VALID,22.1005,VALID,138,VALID,0.682813,
2014-02-27, 08:52:04,VALID,919.563,VALID,0,VALID,80.6252,VALID,222.618,VALID,22.1803,VALID,146,VALID,1.28047,
2014-02-27, 08:53:04,VALID,919.554,VALID,0,VALID,80.0154,VALID,246.148,VALID,22.1998,VALID,175,VALID,1.41211,
2014-02-27, 08:54:04,VALID,919.557,VALID,0,VALID,79.6723,VALID,251.735,VALID,22.1608,VALID,126,VALID,1.63711,
2014-02-27, 08:55:04,VALID,919.536,VALID,0,VALID,79.1539,VALID,236.156,VALID,22.1005,VALID,137,VALID,2.18398,
2014-02-27, 08:56:04,VALID,919.542,VALID,0,VALID,79.6952,VALID,220.899,VALID,22.1217,VALID,123,VALID,1.27813,
2014-02-27, 08:57:04,VALID,919.546,VALID,0,VALID,80.2288,VALID,229.924,VALID,22.1396,VALID,155,VALID,1.46094,
2014-02-27, 08:58:04,VALID,919.536,VALID,0,VALID,80.7091,VALID,280.099,VALID,22.1981,VALID,142,VALID,1.18398,
2014-02-27, 08:59:04,VALID,919.498,VALID,0,VALID,79.7714,VALID,276.446,VALID,22.2371,VALID,77,VALID,1.81328,
2014-02-27, 09:00:04,VALID,919.506,VALID,0,VALID,78.4221,VALID,264.95,VALID,22.2371,VALID,142,VALID,2.77578,
2014-02-27, 09:01:04,VALID,919.544,VALID,0,VALID,79.192,VALID,268.388,VALID,22.2388,VALID,158,VALID,1.16133,
2014-02-27, 09:02:04,VALID,919.469,VALID,0,VALID,78.8261,VALID,249.586,VALID,22.2957,VALID,107,VALID,2.03594,
2014-02-27, 09:03:04,VALID,919.518,VALID,0,VALID,78.7041,VALID,257.966,VALID,22.3152,VALID,122,VALID,2.08633,
2014-02-27, 09:04:04,VALID,919.509,VALID,0,VALID,78.7804,VALID,288.372,VALID,22.3542,VALID,105,VALID,1.80313,
2014-02-27, 09:05:04,VALID,919.489,VALID,0,VALID,79.6952,VALID,275.372,VALID,22.4128,VALID,103,VALID,1.65781,
2014-02-27, 09:06:04,VALID,919.446,VALID,0,VALID,77.9037,VALID,299.653,VALID,22.4323,VALID,107,VALID,2.8875,
2014-02-27, 09:07:04,VALID,919.445,VALID,0,VALID,76.1274,VALID,306.53,VALID,22.4323,VALID,109,VALID,1.84336,
2014-02-27, 09:08:04,VALID,919.435,VALID,0,VALID,76.9889,VALID,324.043,VALID,22.4713,VALID,138,VALID,1.4457,
2014-02-27, 09:09:04,VALID,919.403,VALID,0,VALID,77.6902,VALID,317.381,VALID,22.5494,VALID,148,VALID,1.49883,
2014-02-27, 09:10:04,VALID,919.393,VALID,0,VALID,77.3243,VALID,295.141,VALID,22.647,VALID,175,VALID,1.71328,
2014-02-27, 09:11:04,VALID,919.409,VALID,0,VALID,77.5911,VALID,289.446,VALID,22.7055,VALID,121,VALID,2.06719,
2014-02-27, 09:12:04,VALID,919.425,VALID,0,VALID,78.6279,VALID,319.53,VALID,22.7641,VALID,102,VALID,1.70078,
2014-02-27, 09:13:04,VALID,919.431,VALID,0,VALID,75.7081,VALID,331.671,VALID,22.7445,VALID,93,VALID,1.5418,
2014-02-27, 09:14:04,VALID,919.455,VALID,0,VALID,74.9992,VALID,335.754,VALID,22.7055,VALID,111,VALID,2.73086,
2014-02-27, 09:15:04,VALID,919.45,VALID,0,VALID,76.5467,VALID,289.661,VALID,22.6665,VALID,108,VALID,1.61172,
2014-02-27, 09:16:04,VALID,919.435,VALID,0,VALID,77.3243,VALID,266.669,VALID,22.6665,VALID,124,VALID,2.1832,
2014-02-27, 09:17:04,VALID,919.474,VALID,0,VALID,77.4996,VALID,272.363,VALID,22.7836,VALID,157,VALID,0.677344,
2014-02-27, 09:18:04,VALID,919.502,VALID,0,VALID,75.4642,VALID,285.364,VALID,22.8226,VALID,129,VALID,1.97227,
2014-02-27, 09:19:04,VALID,919.531,VALID,0,VALID,76.2113,VALID,293.314,VALID,22.8226,VALID,120,VALID,1.44609,
2014-02-27, 09:20:04,VALID,919.572,VALID,0,VALID,77.3091,VALID,299.868,VALID,22.9007,VALID,158,VALID,1.14453,
2014-02-27, 09:21:04,VALID,919.583,VALID,0,VALID,77.4615,VALID,297.934,VALID,22.9202,VALID,116,VALID,0.765625,
2014-02-27, 09:22:04,VALID,919.552,VALID,0,VALID,76.1808,VALID,271.181,VALID,22.9592,VALID,148,VALID,1.68984,
2014-02-27, 09:23:04,VALID,919.63,VALID,0,VALID,76.3104,VALID,274.62,VALID,22.8794,VALID,133,VALID,1.46172,
2014-02-27, 09:24:04,VALID,919.632,VALID,0,VALID,76.1046,VALID,225.734,VALID,22.8794,VALID,150,VALID,2.01172,
2014-02-27, 09:25:04,VALID,919.645,VALID,0,VALID,76.0664,VALID,207.147,VALID,22.8404,VALID,150,VALID,1.73906,
2014-02-27, 09:26:04,VALID,919.626,VALID,0,VALID,77.1185,VALID,204.675,VALID,22.8812,VALID,91,VALID,1.00547,
2014-02-27, 09:27:04,VALID,919.631,VALID,0,VALID,76.6077,VALID,193.609,VALID,22.9592,VALID,101,VALID,2.19492,
2014-02-27, 09:28:04,VALID,919.628,VALID,0,VALID,76.7144,VALID,186.518,VALID,22.8989,VALID,141,VALID,1.58242,
2014-02-27, 09:29:04,VALID,919.645,VALID,0,VALID,76.8898,VALID,193.287,VALID,22.9185,VALID,134,VALID,0.85625,
2014-02-27, 09:30:04,VALID,919.643,VALID,0,VALID,75.7844,VALID,186.088,VALID,22.9185,VALID,130,VALID,2.23008,
2014-02-27, 09:31:04,VALID,919.649,VALID,0,VALID,77.2557,VALID,195.006,VALID,22.9202,VALID,103,VALID,1.52773,
2014-02-27, 09:32:04,VALID,919.607,VALID,0,VALID,76.0664,VALID,266.347,VALID,22.9007,VALID,73,VALID,2.45547,
2014-02-27, 09:33:04,VALID,919.584,VALID,0,VALID,75.6777,VALID,263.446,VALID,22.8616,VALID,107,VALID,0.914453,
2014-02-27, 09:34:04,VALID,919.569,VALID,0,VALID,75.2584,VALID,306.744,VALID,22.9202,VALID,77,VALID,1.85078,
2014-02-27, 09:35:04,VALID,919.545,VALID,0,VALID,76.9279,VALID,275.264,VALID,22.938,VALID,70,VALID,0.860547,
2014-02-27, 09:36:04,VALID,919.548,VALID,0,VALID,76.0207,VALID,262.049,VALID,22.977,VALID,59,VALID,1.3957,
2014-02-27, 09:37:04,VALID,919.57,VALID,0,VALID,74.8924,VALID,241.313,VALID,23.0178,VALID,143,VALID,2.18164,
2014-02-27, 09:38:04,VALID,919.515,VALID,0,VALID,76.3638,VALID,231.965,VALID,22.9983,VALID,103,VALID,1.39609,
2014-02-27, 09:39:04,VALID,919.467,VALID,0,VALID,75.8835,VALID,235.404,VALID,23.0356,VALID,64,VALID,1.69453,
2014-02-27, 09:40:04,VALID,919.509,VALID,0,VALID,77.1261,VALID,244.214,VALID,23.1154,VALID,76,VALID,0.946094,
2014-02-27, 09:41:04,VALID,919.489,VALID,0,VALID,73.627,VALID,266.024,VALID,23.0959,VALID,65,VALID,3.16758,
2014-02-27, 09:42:04,VALID,919.477,VALID,0,VALID,74.1682,VALID,281.388,VALID,22.977,VALID,72,VALID,2.09727,
2014-02-27, 09:43:04,VALID,919.472,VALID,0,VALID,74.6104,VALID,308.893,VALID,22.977,VALID,81,VALID,1.43711,
2014-02-27, 09:44:04,VALID,919.429,VALID,0,VALID,75.0068,VALID,393.664,VALID,23.0356,VALID,129,VALID,2.24766,
2014-02-27, 09:45:04,VALID,919.467,VALID,0,VALID,75.3956,VALID,424.822,VALID,23.0941,VALID,110,VALID,0.580469,
2014-02-27, 09:46:04,VALID,919.464,VALID,0,VALID,73.6574,VALID,448.137,VALID,23.1899,VALID,129,VALID,3.82539,
2014-02-27, 09:47:04,VALID,919.483,VALID,0,VALID,73.4821,VALID,406.987,VALID,23.2502,VALID,84,VALID,1.98477,
2014-02-27, 09:48:04,VALID,919.482,VALID,0,VALID,74.1225,VALID,442.013,VALID,23.3283,VALID,124,VALID,2.10156,
2014-02-27, 09:49:04,VALID,919.493,VALID,0,VALID,72.7503,VALID,360.25,VALID,23.4259,VALID,127,VALID,2.06055,
2014-02-27, 09:50:04,VALID,919.493,VALID,0,VALID,73.383,VALID,340.266,VALID,23.504,VALID,93,VALID,1.72344,
2014-02-27, 09:51:04,VALID,919.53,VALID,0,VALID,72.4529,VALID,371.531,VALID,23.4454,VALID,85,VALID,2.41016,
2014-02-27, 09:52:04,VALID,919.532,VALID,0,VALID,72.4758,VALID,366.804,VALID,23.3088,VALID,118,VALID,2.62617,
2014-02-27, 09:53:04,VALID,919.489,VALID,0,VALID,71.805,VALID,398.607,VALID,23.307,VALID,146,VALID,1.57383,
2014-02-27, 09:54:04,VALID,919.474,VALID,0,VALID,72.4377,VALID,434.17,VALID,23.3869,VALID,166,VALID,1.50039,
2014-02-27, 09:55:04,VALID,919.472,VALID,0,VALID,73.9014,VALID,416.012,VALID,23.5821,VALID,73,VALID,1.77617,
2014-02-27, 09:56:04,VALID,919.493,VALID,0,VALID,71.8507,VALID,347.68,VALID,23.6211,VALID,75,VALID,2.8207,
2014-02-27, 09:57:04,VALID,919.46,VALID,0,VALID,73.2382,VALID,358.209,VALID,23.6016,VALID,84,VALID,2.32148,
2014-02-27, 09:58:04,VALID,919.47,VALID,0,VALID,70.8749,VALID,375.722,VALID,23.543,VALID,121,VALID,2.94766,
2014-02-27, 09:59:04,VALID,919.437,VALID,0,VALID,73.5431,VALID,428.583,VALID,23.4845,VALID,55,VALID,1.92578,
2014-02-27, 10:00:04,VALID,919.513,VALID,0,VALID,72.7274,VALID,367.449,VALID,23.6016,VALID,81,VALID,2.17695,
2014-02-27, 10:01:04,VALID,919.488,VALID,0,VALID,71.1798,VALID,337.795,VALID,23.5626,VALID,121,VALID,3.01289,
2014-02-27, 10:02:04,VALID,919.473,VALID,0,VALID,71.744,VALID,362.184,VALID,23.4437,VALID,143,VALID,1.86094,
2014-02-27, 10:03:04,VALID,919.464,VALID,0,VALID,73.4059,VALID,466.832,VALID,23.4454,VALID,96,VALID,2.36875,
2014-02-27, 10:04:04,VALID,919.46,VALID,0,VALID,71.3399,VALID,463.394,VALID,23.5235,VALID,79,VALID,2.36758,
2014-02-27, 10:05:04,VALID,919.471,VALID,0,VALID,71.3171,VALID,342.845,VALID,23.504,VALID,85,VALID,1.94883,
2014-02-27, 10:06:04,VALID,919.46,VALID,0,VALID,72.918,VALID,315.77,VALID,23.4437,VALID,97,VALID,0.839063,
2014-02-27, 10:07:04,VALID,919.482,VALID,0,VALID,72.3462,VALID,397.21,VALID,23.5022,VALID,122,VALID,1.64141,
2014-02-27, 10:08:04,VALID,919.448,VALID,0,VALID,72.6359,VALID,350.258,VALID,23.5998,VALID,43,VALID,2.04023,
2014-02-27, 10:09:04,VALID,919.48,VALID,0,VALID,71.6677,VALID,370.457,VALID,23.5803,VALID,89,VALID,2.3082,
2014-02-27, 10:10:04,VALID,919.508,VALID,0,VALID,71.9041,VALID,471.344,VALID,23.5217,VALID,92,VALID,2.21953,
2014-02-27, 10:11:04,VALID,919.495,VALID,0,VALID,73.0323,VALID,490.254,VALID,23.6211,VALID,101,VALID,1.5543,
2014-02-27, 10:12:04,VALID,919.461,VALID,0,VALID,72.4606,VALID,373.251,VALID,23.7791,VALID,59,VALID,1.59648,
2014-02-27, 10:13:04,VALID,919.459,VALID,0,VALID,70.852,VALID,363.581,VALID,23.8145,VALID,131,VALID,1.33164,
2014-02-27, 10:14:04,VALID,919.431,VALID,0,VALID,71.8736,VALID,466.939,VALID,23.9335,VALID,89,VALID,2.68828,
2014-02-27, 10:15:04,VALID,919.445,VALID,0,VALID,72.2776,VALID,493.155,VALID,23.9158,VALID,63,VALID,2.42344,
2014-02-27, 10:16:04,VALID,919.454,VALID,0,VALID,71.4162,VALID,503.469,VALID,24.0701,VALID,180,VALID,1.16484,
2014-02-27, 10:17:04,VALID,919.441,VALID,0,VALID,71.3018,VALID,512.817,VALID,24.2068,VALID,118,VALID,0.448047,
2014-02-27, 10:18:04,VALID,919.444,VALID,0,VALID,70.7758,VALID,450.931,VALID,24.3435,VALID,105,VALID,1.23633,
2014-02-27, 10:19:04,VALID,919.362,VALID,0,VALID,70.0135,VALID,367.986,VALID,24.402,VALID,67,VALID,3.33867,
2014-02-27, 10:20:04,VALID,919.452,VALID,0,VALID,69.5865,VALID,361.539,VALID,24.2458,VALID,89,VALID,2.39219,
2014-02-27, 10:21:04,VALID,919.507,VALID,0,VALID,70.913,VALID,379.16,VALID,24.0701,VALID,122,VALID,1.63203,
2014-02-27, 10:22:04,VALID,919.478,VALID,0,VALID,70.509,VALID,509.056,VALID,23.8163,VALID,169,VALID,0.950781,
2014-02-27, 10:23:04,VALID,919.432,VALID,0,VALID,71.3094,VALID,529.255,VALID,23.8749,VALID,91,VALID,1.10781,
2014-02-27, 10:24:04,VALID,919.456,VALID,0,VALID,71.4162,VALID,541.074,VALID,23.9725,VALID,114,VALID,1.72891,
2014-02-27, 10:25:04,VALID,919.455,VALID,0,VALID,70.6996,VALID,524.528,VALID,23.992,VALID,117,VALID,3.44414,
2014-02-27, 10:26:04,VALID,919.425,VALID,0,VALID,71.4467,VALID,527.966,VALID,23.8554,VALID,127,VALID,3.19805,
2014-02-27, 10:27:04,VALID,919.456,VALID,0,VALID,72.5292,VALID,524.205,VALID,23.9139,VALID,101,VALID,1.96094,
2014-02-27, 10:28:04,VALID,919.456,VALID,0,VALID,71.5153,VALID,500.998,VALID,23.9902,VALID,80,VALID,1.20508,
2014-02-27, 10:29:04,VALID,919.48,VALID,0,VALID,70.4327,VALID,517.329,VALID,23.9707,VALID,125,VALID,2.53984,
2014-02-27, 10:30:04,VALID,919.469,VALID,0,VALID,70.9054,VALID,536.346,VALID,23.8554,VALID,145,VALID,1.61641,
2014-02-27, 10:31:04,VALID,919.519,VALID,0,VALID,70.8444,VALID,549.024,VALID,23.9725,VALID,161,VALID,3.15,
2014-02-27, 10:32:04,VALID,919.513,VALID,0,VALID,72.5749,VALID,549.884,VALID,23.9939,VALID,88,VALID,1.48945,
2014-02-27, 10:33:04,VALID,919.503,VALID,0,VALID,70.9816,VALID,455.336,VALID,24.0896,VALID,154,VALID,2.26797,
2014-02-27, 10:34:04,VALID,919.533,VALID,0,VALID,71.2866,VALID,526.891,VALID,24.2263,VALID,80,VALID,1.69844,
2014-02-27, 10:35:04,VALID,919.488,VALID,0,VALID,70.4937,VALID,556.33,VALID,24.2263,VALID,90,VALID,2.73711,
2014-02-27, 10:36:04,VALID,919.504,VALID,0,VALID,70.9359,VALID,517.114,VALID,24.2263,VALID,77,VALID,2.85313,
2014-02-27, 10:37:04,VALID,919.544,VALID,0,VALID,71.7821,VALID,442.98,VALID,24.2849,VALID,105,VALID,1.85039,
2014-02-27, 10:38:04,VALID,919.525,VALID,0,VALID,70.8215,VALID,489.609,VALID,24.3435,VALID,117,VALID,1.87227,
2014-02-27, 10:39:04,VALID,919.525,VALID,0,VALID,69.9906,VALID,499.924,VALID,24.2849,VALID,129,VALID,1.88047,
2014-02-27, 10:40:04,VALID,919.542,VALID,0,VALID,72.3157,VALID,580.075,VALID,24.3611,VALID,76,VALID,2.16563,
2014-02-27, 10:41:04,VALID,919.563,VALID,0,VALID,69.4874,VALID,607.365,VALID,24.402,VALID,79,VALID,2.13711,
2014-02-27, 10:42:04,VALID,919.515,VALID,0,VALID,71.1875,VALID,588.025,VALID,24.4411,VALID,103,VALID,1.82148,
2014-02-27, 10:43:04,VALID,919.556,VALID,0,VALID,69.4646,VALID,553.214,VALID,24.4411,VALID,107,VALID,1.96875,
2014-02-27, 10:44:04,VALID,919.511,VALID,0,VALID,67.917,VALID,540.214,VALID,24.3026,VALID,174,VALID,1.56758,
2014-02-27, 10:45:04,VALID,919.523,VALID,0,VALID,69.0148,VALID,479.08,VALID,24.3416,VALID,170,VALID,1.54961,
2014-02-27, 10:46:04,VALID,919.509,VALID,0,VALID,69.7466,VALID,544.619,VALID,24.4411,VALID,145,VALID,2.19961,
2014-02-27, 10:47:04,VALID,919.502,VALID,0,VALID,69.5027,VALID,422.566,VALID,24.654,VALID,32,VALID,0.527344,
2014-02-27, 10:48:04,VALID,919.482,VALID,0,VALID,66.5219,VALID,426.112,VALID,24.8688,VALID,16,VALID,1.88555,
2014-02-27, 10:49:04,VALID,919.516,VALID,0,VALID,66.4381,VALID,395.276,VALID,24.9097,VALID,96,VALID,1.74063,
2014-02-27, 10:50:04,VALID,919.507,VALID,0,VALID,68.2448,VALID,437.715,VALID,24.734,VALID,60,VALID,2.29766,
2014-02-27, 10:51:04,VALID,919.505,VALID,0,VALID,68.0161,VALID,508.734,VALID,24.5564,VALID,79,VALID,1.96172,
2014-02-27, 10:52:04,VALID,919.462,VALID,0,VALID,69.6704,VALID,466.402,VALID,24.4197,VALID,54,VALID,2.45234,
2014-02-27, 10:53:04,VALID,919.499,VALID,0,VALID,67.917,VALID,433.632,VALID,24.4392,VALID,63,VALID,2.88203,
2014-02-27, 10:54:04,VALID,919.529,VALID,0,VALID,68.5193,VALID,426.756,VALID,24.3611,VALID,96,VALID,2.3207,
2014-02-27, 10:55:04,VALID,919.473,VALID,0,VALID,67.9094,VALID,424.5,VALID,24.2635,VALID,90,VALID,3.11836,
2014-02-27, 10:56:04,VALID,919.479,VALID,0,VALID,70.1812,VALID,414.83,VALID,24.2049,VALID,90,VALID,1.69023,
2014-02-27, 10:57:04,VALID,919.472,VALID,0,VALID,68.7403,VALID,491.006,VALID,24.2245,VALID,61,VALID,3.06328,
2014-02-27, 10:58:04,VALID,919.497,VALID,0,VALID,68.8547,VALID,546.553,VALID,24.1854,VALID,154,VALID,1.14609,
2014-02-27, 10:59:04,VALID,919.493,VALID,0,VALID,70.8444,VALID,504.973,VALID,24.3611,VALID,46,VALID,1.3082,
2014-02-27, 11:00:04,VALID,919.479,VALID,0,VALID,66.7278,VALID,427.508,VALID,24.6345,VALID,110,VALID,2.51563,
2014-02-27, 11:01:04,VALID,919.471,VALID,0,VALID,68.3744,VALID,401.185,VALID,24.6149,VALID,128,VALID,2.53398,
2014-02-27, 11:02:04,VALID,919.44,VALID,0,VALID,67.3681,VALID,390.871,VALID,24.3825,VALID,115,VALID,3.88281,
2014-02-27, 11:03:04,VALID,919.464,VALID,0,VALID,67.9246,VALID,378.837,VALID,24.3221,VALID,95,VALID,1.79531,
2014-02-27, 11:04:04,VALID,919.411,VALID,0,VALID,66.7201,VALID,368.308,VALID,24.3416,VALID,104,VALID,0.289063,
2014-02-27, 11:05:04,VALID,919.409,VALID,0,VALID,68.2143,VALID,361.754,VALID,24.4587,VALID,110,VALID,1.2125,
2014-02-27, 11:06:04,VALID,919.375,VALID,0,VALID,67.9856,VALID,406.45,VALID,24.5759,VALID,103,VALID,0.0898438,
2014-02-27, 11:07:04,VALID,919.37,VALID,0,VALID,67.0174,VALID,424.93,VALID,24.7711,VALID,149,VALID,0.135547,
2014-02-27, 11:08:04,VALID,919.34,VALID,0,VALID,66.7278,VALID,414.186,VALID,24.9469,VALID,44,VALID,1.51211,
2014-02-27, 11:09:04,VALID,919.32,VALID,0,VALID,65.5919,VALID,413.434,VALID,25.0855,VALID,69,VALID,0.764844,
2014-02-27, 11:10:04,VALID,919.354,VALID,0,VALID,66.4914,VALID,407.417,VALID,24.8883,VALID,145,VALID,1.92773,
2014-02-27, 11:11:04,VALID,919.319,VALID,0,VALID,65.7596,VALID,409.136,VALID,24.8297,VALID,188,VALID,0.804688,
2014-02-27, 11:12:04,VALID,919.371,VALID,0,VALID,66.0035,VALID,465.757,VALID,24.9078,VALID,214,VALID,0.69375,
2014-02-27, 11:13:04,VALID,919.387,VALID,0,VALID,66.1941,VALID,370.027,VALID,24.9469,VALID,163,VALID,1.07891,
2014-02-27, 11:14:04,VALID,919.378,VALID,0,VALID,65.569,VALID,338.44,VALID,24.9664,VALID,210,VALID,1.13125,
2014-02-27, 11:15:04,VALID,919.346,VALID,0,VALID,65.3708,VALID,317.381,VALID,24.9469,VALID,210,VALID,0.574609,